NOAA 16 DEB, 42345

Orbit data source: Space-Track

NOAA 16 DEB, 42345 is space debris in SSO originally from a launch on Thu, 21 Sep 2000 UTC launched from the Air Force Western Test Range (AFWTR). Debris objects in space refer to the collection of defunct objects orbiting the Earth. Examples of debris include non-operational satellites, rocket bodies, and fragments generated from explosions, collisions, or faulty payload assembly.

Loading next visibility...
Identifier
42345, 2000-055QM
Orbit
SSO
Country
Flag of USUS
Related business
Manufacturer
Unknown
Mission
Spacecraft
Bus & Motor
Unknown
Mass
Unknown
Launch date (UTC)
2000-09-21 (25 years ago)
Launch vehicle
Unknown
Launch site
Air Force Western Test Range (AFWTR)
Object type
Payload
Rocket body
Debris
Shape & HBR
Unknown shape, 0.1 m
Radar Cross Section
Small (<0.1 m²)

Expand to show TLE details & history
Last TLE update: 2 days ago

TLE from 2 days ago
0 NOAA 16 DEB
1 42345U 00055QM  25347.64079700  .00034054  00000-0  49485-2 0  9990
2 42345  98.7121 120.5814 0025662 216.5225 143.4232 14.75620362503017
Epoch: 2025-12-13T15:22Z
TLE epoch observation values (Epoch: 2025-12-13T15:22:44.860Z)
Latitude
-0.00012°
Longitude
167.32934°
Altitude
660.662 km
Speed
7.519 km/s
True Right ascension
08h 02m 19s
True Declination
0° 00' 00"
Sunlit
Object was in full shadow at epoch
Visualization orbit readout
Latitude
Unknown
Longitude
Unknown
Altitude
Unknown
Speed
Unknown
Apparent Right ascension
Unknown
Apparent Declination
Unknown
Sunlit
N/A
Visualization observer readout
Local Sidereal Time
13:23:49
Azimuth
Unknown
Elevation
Unknown
Doppler factor
Unknown
Orbital elements
Apogee altitude
658.278 km
Perigee altitude
622.257 km
Semi-major axis
7,018.404 km
Eccentricity
0.00257
Inclination
98.7121°
RAAN
120.5814°
Arg. of periapsis
216.5225°
True anomaly
143.59798°
Mean anomaly
143.4232°
Eccentric anomaly
143.51064°
Mean motion
3.69135 °/min
Orbital period
97.53 mins
BSTAR
0.0049485
Loading maneuver chart data...
Computing Atmospheric mass density...
Loading historical data...
Loading historical data...
Loading historical data...
Loading historical data...
Loading historical data...
Loading historical data...
Loading historical data...

Documentation

Showing up to 5 results
|